15 daagse weersverwachting Sitten (CH)

  • Overzicht
  • Per uur
  • 15 dagen
  • Extra
  • Vergelijk
  • Kaarten
  • Dagkaart
  • Meer »
  • Info
  • Statistieken
  • Directe link
    Temp 6h Neerslag Wind  
 08:05     16:44    Daglengte: 8:39 Morgen
01:00
6.9 mm
1
07:00
-0°
8.9 mm
2
warningclass
13:00
1.7 mm
1
warningclass
19:00
-1°
 
2
 08:06     16:44    Daglengte: 8:38 Vrijdag 13 Dec
01:00
 
2
07:00
14.0 mm
1
warningclass
13:00
24.5 mm
4
19:00
24.7 mm
3
 08:07     16:44    Daglengte: 8:37 Zaterdag 14 Dec
01:00
32.1 mm
3
07:00
47.5 mm
3
13:00
107.6 mm
3
Locatie info
Region: Sitten
Latitude: 46.2281°N
Longitude: 7.3589°E
503 masl
Postcode: 1950
Temp/Neerslag /Baro Onweer/DauwpuntSneeuw
    Temp Baro 1h Neerslag Dauwpunt Wind UV BewolkingSneeuw  
 08:05     16:44    Daglengte: 8:39 Vandaag
20:00
Voelt als: 2.0°
1012.6 hPa 1.0 mm
82%
0.9°
1
Windvlaag: -0.4 km/h
91%37 cm
21:00
Voelt als: 1.8°
1012.1 hPa 1.2 mm
82%
1.0°
1
Windvlaag: -0.4 km/h
91%38 cm
22:00
Voelt als: 1.6°
1011.6 hPa 1.2 mm
82%
0.9°
1
Windvlaag: -0.4 km/h
90%39 cm
23:00
Voelt als: 1.2°
1010.9 hPa 1.2 mm
82%
0.8°
1
Windvlaag: -0.5 km/h
90%39 cm
 08:05     16:44    Daglengte: 8:39 Morgen
00:00
Voelt als: 0.4°
1010.5 hPa 1.2 mm
82%
0.1°
1
Windvlaag: -0.4 km/h
88%39 cm warningclass
01:00
Voelt als: 0.7°
1010.2 hPa 1.1 mm
82%
0.0°
1
Windvlaag: 0.5 km/h
87%39 cm
02:00
Voelt als: 0.4°
1010.1 hPa 1.3 mm
78%
-0.4°
1
Windvlaag: 0.6 km/h
84%39 cm warningclass
03:00
Voelt als: -0.4°
1010.0 hPa 1.3 mm
33%
-1.1°
1
Windvlaag: 0.4 km/h
87%39 cm warningclass
04:00
Voelt als: 0.1°
1009.7 hPa 1.4 mm
21%
-1.5°
1
Windvlaag: -0 km/h
82%39 cm warningclass
05:00
-1°
Voelt als: -1.9°
1009.9 hPa 1.7 mm
37%
-1.9°
1
Windvlaag: 0.3 km/h
85%39 cm warningclass
06:00
-0°
Voelt als: -2.2°
1010.5 hPa 1.4 mm
82%
-1.7°
2
Windvlaag: 2 km/h
82%39 cm warningclass
07:00
-0°
Voelt als: -2.7°
1010.9 hPa 1.7 mm
82%
-2.6°
2
Windvlaag: 2.3 km/h
66%39 cm warningclass
08:00
-1°
Voelt als: -3.2°
1011.5 hPa 1.7 mm
82%
-2.8°
2
Windvlaag: 4.1 km/h
42%40 cm warningclass
09:00
-0°
Voelt als: -2.8°
1011.8 hPa
82%
-3.0°
2
Windvlaag: 2.3 km/h
45%41 cm
10:00
Voelt als: -1.8°
1011.8 hPa
82%
-2.9°
2
Windvlaag: 2.9 km/h
22%42 cm
11:00
Voelt als: -1.4°
1011.3 hPa
80%
-3.2°
2
Windvlaag: 3.3 km/h
14%42 cm
12:00
Voelt als: -1.1°
1010.3 hPa
36%
-3.9°
2
Windvlaag: 3.2 km/h
14%42 cm
13:00
Voelt als: -0.4°
1009.5 hPa
24%
-4.1°
1
Windvlaag: 2.8 km/h
14%42 cm
14:00
Voelt als: -0.2°
1008.9 hPa
17%
-5.5°
1
Windvlaag: 2.5 km/h
11%42 cm
15:00
Voelt als: 0.0°
1007.8 hPa
14%
-6.6°
1
Windvlaag: 2.7 km/h
7%42 cm
16:00
Voelt als: -0.4°
1006.6 hPa
14%
-7.3°
1
Windvlaag: 2.6 km/h
5%42 cm
17:00
-0°
Voelt als: -2.2°
1005.3 hPa
14%
-8.2°
2
Windvlaag: 2.3 km/h
11%42 cm
18:00
-1°
Voelt als: -3.1°
1004.2 hPa
14%
-8.0°
2
Windvlaag: 2.5 km/h
0%42 cm
19:00
-1°
Voelt als: -2.9°
1003.1 hPa
14%
-8.0°
2
Windvlaag: 2.8 km/h
4%42 cm
20:00
-1°
Voelt als: -3.4°
1001.4 hPa
14%
-7.7°
2
Windvlaag: 2.9 km/h
30%42 cm
21:00
-1°
Voelt als: -3.1°
999.9 hPa
14%
-7.0°
2
Windvlaag: 3.1 km/h
43%42 cm
22:00
-0°
Voelt als: -2.3°
998.6 hPa
14%
-7.9°
2
Windvlaag: 3.6 km/h
54%42 cm
23:00
Voelt als: -1.4°
997.4 hPa
14%
-5.3°
1
Windvlaag: 3.5 km/h
89%42 cm
 08:06     16:44    Daglengte: 8:38 Vrijdag 13 Dec
00:00
Voelt als: -1.5°
996.9 hPa
14%
-4.0°
2
Windvlaag: 3.4 km/h
89%42 cm
01:00
Voelt als: -1.2°
996.1 hPa
20%
-3.1°
2
Windvlaag: 3 km/h
89%42 cm
02:00
Voelt als: -1.6°
995.0 hPa 2.2 mm
44%
-3.0°
2
Windvlaag: 4 km/h
91%42 cm warningclass
03:00
Voelt als: -1.0°
993.5 hPa 1.5 mm
82%
-2.6°
2
Windvlaag: 3.8 km/h
90%42 cm warningclass
04:00
Voelt als: -1.2°
991.7 hPa 2.7 mm
82%
-2.7°
2
Windvlaag: 4.3 km/h
91%42 cm warningclass
05:00
Voelt als: -1.4°
991.0 hPa 2.4 mm
82%
-2.0°
2
Windvlaag: 4.7 km/h
91%42 cm warningclass
06:00
Voelt als: -1.0°
990.0 hPa 2.5 mm
82%
-1.4°
2
Windvlaag: 4.4 km/h
91%42 cm warningclass
07:00
Voelt als: -0.3°
988.5 hPa 2.7 mm
82%
-1.2°
1
Windvlaag: 3.9 km/h
90%43 cm warningclass
08:00
Voelt als: -0.9°
988.8 hPa 3.4 mm
82%
-0.9°
2
Windvlaag: 3.4 km/h
91%44 cm warningclass
09:00
Voelt als: -1.0°
988.7 hPa 4.8 mm
82%
-0.5°
2
Windvlaag: 3.4 km/h
90%45 cm
10:00
Voelt als: -1.6°
988.8 hPa 4.9 mm
82%
-0.5°
3
Windvlaag: 5.1 km/h
91%46 cm
11:00
Voelt als: -1.4°
989.4 hPa 3.8 mm
82%
-0.1°
3
Windvlaag: 2.2 km/h
88%47 cm
12:00
Voelt als: -1.8°
989.2 hPa 3.8 mm
82%
-0.3°
3
Windvlaag: -1.1 km/h
84%47 cm
13:00
Voelt als: -2.0°
989.2 hPa 3.7 mm
82%
-0.5°
4
Windvlaag: -0 km/h
81%49 cm
14:00
Voelt als: -1.5°
990.1 hPa 3.5 mm
82%
-0.4°
3
Windvlaag: 0.2 km/h
90%49 cm
15:00
Voelt als: -2.0°
990.8 hPa 3.9 mm
82%
-0.3°
4
Windvlaag: -3.8 km/h
89%50 cm
16:00
Voelt als: -1.4°
992.5 hPa 4.0 mm
100%
0.0°
3
Windvlaag: -3.8 km/h
98%52 cm
17:00
Voelt als: -2.2°
993.8 hPa 4.1 mm
100%
-0.7°
3
Windvlaag: -3.5 km/h
96%55 cm warningclass
18:00
Voelt als: -1.8°
994.4 hPa 4.5 mm
100%
-0.0°
3
Windvlaag: -3.5 km/h
92%55 cm
19:00
Voelt als: -2.0°
995.5 hPa 4.7 mm
100%
0.1°
3
Windvlaag: -3 km/h
96%56 cm
20:00
Voelt als: -2.1°
996.5 hPa 6.8 mm
100%
-0.1°
4
Windvlaag: -2.1 km/h
94%58 cm
21:00
Voelt als: -1.4°
997.4 hPa 7.1 mm
100%
0.1°
3
Windvlaag: -2.6 km/h
95%59 cm
22:00
Voelt als: -1.3°
998.2 hPa
100%
0.3°
4
Windvlaag: -2.4 km/h
92%63 cm
23:00
Voelt als: -0.8°
998.9 hPa
98%
0.3°
3
Windvlaag: -3.2 km/h
99%66 cm
 08:07     16:44    Daglengte: 8:37 Zaterdag 14 Dec
00:00
Voelt als: -1.1°
999.7 hPa 9.0 mm
59%
0.5°
4
Windvlaag: -3.3 km/h
98%66 cm
01:00
Voelt als: -0.7°
998.5 hPa 9.1 mm
100%
0.5°
3
Windvlaag: -2.6 km/h
95%67 cm
02:00
Voelt als: -0.6°
999.1 hPa 7.1 mm
100%
0.5°
4
Windvlaag: -3.5 km/h
80%68 cm
03:00
Voelt als: -0.1°
999.1 hPa 7.5 mm
100%
0.8°
3
Windvlaag: -3.5 km/h
98%70 cm
04:00
Voelt als: 0.7°
998.8 hPa 8.1 mm
100%
1.3°
3
Windvlaag: -4 km/h
100%71 cm
05:00
Voelt als: 0.8°
998.3 hPa 8.2 mm
100%
1.7°
3
Windvlaag: -4.1 km/h
100%72 cm
06:00
Voelt als: 2.0°
998.2 hPa 8.3 mm
100%
2.6°
3
Windvlaag: -4.4 km/h
95%73 cm
07:00
Voelt als: 1.8°
999.4 hPa 8.3 mm
100%
2.9°
3
Windvlaag: -3.6 km/h
98%74 cm
08:00
Voelt als: 2.1°
1001.0 hPa 11.7 mm
100%
3.0°
3
Windvlaag: -8.3 km/h
89%75 cm
09:00
Voelt als: 2.0°
1002.6 hPa 19.1 mm
100%
3.0°
4
Windvlaag: -8.6 km/h
82%74 cm
10:00
Voelt als: 2.4°
1004.0 hPa 19.0 mm
100%
3.0°
3
Windvlaag: -9.5 km/h
89%72 cm
11:00
Voelt als: 2.9°
1005.1 hPa 19.2 mm
100%
3.0°
3
Windvlaag: -8.5 km/h
88%70 cm
12:00
Voelt als: 3.2°
1006.1 hPa 19.3 mm
100%
3.0°
3
Windvlaag: -8 km/h
91%68 cm
13:00
Voelt als: 3.8°
1006.2 hPa 19.3 mm
100%
3.0°
3
Windvlaag: -3.6 km/h
83%66 cm
14:00
Voelt als: 4.1°
1007.6 hPa
100%
3.0°
2
Windvlaag: 14.6 km/h
83%65 cm
15:00
Voelt als: 4.1°
1008.1 hPa
57%
3.0°
2
Windvlaag: 14.3 km/h
87%63 cm
16:00
Voelt als: 4.0°
1008.9 hPa
59%
2.8°
2
Windvlaag: 13.7 km/h
87%61 cm
17:00
Voelt als: 4.1°
1009.6 hPa
97%
2.6°
2
Windvlaag: 13.1 km/h
91%60 cm
18:00
Voelt als: 4.2°
1010.2 hPa
57%
2.5°
2
Windvlaag: 11.9 km/h
94%59 cm
19:00
Voelt als: 4.4°
1010.7 hPa
96%
2.3°
1
Windvlaag: 1.9 km/h
97%57 cm
Temp/Neerslag /Baro Onweer/DauwpuntSneeuw
    Temp Baro Neerslag Dauwpunt Wind BewolkingSneeuw  
 08:05     16:44    Daglengte: 8:39 Vandaag
22:00
Voelt als: 1.6°
1011.6 hPa 3.4 mm 0.9°
1
90%39 cm
 08:05     16:44    Daglengte: 8:39 Morgen
01:00
Voelt als: 0.7°
1010.2 hPa 3.5 mm 0.0°
1
87%39 cm
04:00
Voelt als: 0.1°
1009.7 hPa 4.1 mm -1.5°
1
82%39 cm warningclass
07:00
-0°
Voelt als: -2.7°
1010.9 hPa 4.8 mm -2.6°
2
66%39 cm warningclass
10:00
Voelt als: -1.8°
1011.8 hPa 1.7 mm -2.9°
2
22%42 cm warningclass
13:00
Voelt als: -0.4°
1009.5 hPa   -4.1°
1
14%42 cm
16:00
Voelt als: -0.4°
1006.6 hPa   -7.3°
1
5%42 cm
19:00
-1°
Voelt als: -2.9°
1003.1 hPa   -8.0°
2
4%42 cm
22:00
-0°
Voelt als: -2.3°
998.6 hPa   -7.9°
2
54%42 cm
 08:06     16:44    Daglengte: 8:38 Vrijdag 13 Dec
01:00
Voelt als: -1.2°
996.1 hPa   -3.1°
2
89%42 cm
04:00
Voelt als: -1.2°
991.7 hPa 6.4 mm -2.7°
2
91%42 cm warningclass
07:00
Voelt als: -0.3°
988.5 hPa 7.6 mm -1.2°
1
90%43 cm warningclass
10:00
Voelt als: -1.6°
988.8 hPa 13.2 mm -0.5°
3
91%46 cm
13:00
Voelt als: -2.0°
989.2 hPa 11.4 mm -0.5°
4
81%49 cm
16:00
Voelt als: -1.4°
992.5 hPa 11.4 mm 0.0°
3
98%52 cm
19:00
Voelt als: -2.0°
995.5 hPa 13.3 mm 0.1°
3
96%56 cm
22:00
Voelt als: -1.3°
998.2 hPa 13.9 mm 0.3°
4
92%63 cm
 08:07     16:44    Daglengte: 8:37 Zaterdag 14 Dec
01:00
Voelt als: -0.7°
998.5 hPa 18.1 mm 0.5°
3
95%67 cm
04:00
Voelt als: 0.7°
998.8 hPa 22.7 mm 1.3°
3
100%71 cm
07:00
Voelt als: 1.8°
999.4 hPa 24.8 mm 2.9°
3
98%74 cm
10:00
Voelt als: 2.4°
1004.0 hPa 49.8 mm 3.0°
3
89%72 cm
13:00
Voelt als: 3.8°
1006.2 hPa 57.8 mm 3.0°
3
83%66 cm
16:00
Voelt als: 4.0°
1008.9 hPa   2.8°
2
87%61 cm
19:00
Voelt als: 4.4°
1010.7 hPa   2.3°
1
97%57 cm
22:00
Voelt als: 5.9°
1013.7 hPa 63.1 mm -1.0°
1
91%
 08:08     16:44    Daglengte: 8:36 Zondag 15 Dec
01:00
Voelt als: 6.0°
1014.1 hPa 63.1 mm -3.5°
1
92%
04:00
Voelt als: 6.1°
1013.6 hPa 63.1 mm -0.9°
1
79%
07:00
1013.1 hPa 63.1 mm 1.4°
0
66%
10:00
Voelt als: 7.9°
1012.6 hPa 63.1 mm 2.8°
1
34%
13:00
1011.9 hPa 63.1 mm 4.2°
1
2%
16:00
1012.3 hPa 63.1 mm 2.2°
1
1%
19:00
Voelt als: 4.8°
1012.7 hPa 63.1 mm 0.0°
1
0%
22:00
Voelt als: 3.6°
1013.8 hPa 63.1 mm -1.7°
1
0%
 08:09     16:45    Daglengte: 8:36 Maandag 16 Dec
01:00
Voelt als: 2.3°
1014.8 hPa 63.1 mm -3.4°
2
1%
04:00
Voelt als: 1.3°
1015.2 hPa 63.1 mm -2.8°
2
20%
07:00
Voelt als: 0.3°
1015.7 hPa 63.2 mm -2.4°
2
39%
10:00
Voelt als: 2.6°
1015.1 hPa 63.2 mm -0.1°
2
39%
13:00
Voelt als: 4.8°
1014.4 hPa 63.3 mm 2.3°
2
40%
16:00
Voelt als: 4.1°
1013.8 hPa 63.3 mm 2.3°
2
65%
19:00
Voelt als: 3.4°
1013.3 hPa 63.3 mm 2.3°
2
90%
22:00
Voelt als: 4.1°
1013.0 hPa 63.3 mm 3.0°
2
90%
 08:09     16:45    Daglengte: 8:36 Dinsdag 17 Dec
01:00
Voelt als: 4.8°
1012.6 hPa 63.3 mm 3.7°
2
91%
04:00
Voelt als: 5.3°
1011.6 hPa 63.3 mm 4.3°
2
91%
07:00
Voelt als: 5.8°
1010.6 hPa 63.4 mm 4.8°
2
90%
10:00
Voelt als: 6.8°
1011.1 hPa 63.4 mm 5.2°
2
89%
13:00
Voelt als: 7.9°
1011.4 hPa 63.4 mm 5.6°
1
87%
16:00
Voelt als: 6.9°
1012.0 hPa 63.4 mm 5.3°
1
87%
19:00
Voelt als: 6.0°
1012.7 hPa 63.4 mm 4.9°
1
86%
22:00
Voelt als: 6.2°
1013.6 hPa 63.4 mm 4.7°
1
85%
 08:10     16:45    Daglengte: 8:35 Woensdag 18 Dec
01:00
Voelt als: 6.2°
1014.4 hPa 63.9 mm 4.8°
1
84%
04:00
Voelt als: 6.3°
1015.4 hPa 64.1 mm 5.4°
1
87%
07:00
Voelt als: 6.3°
1016.4 hPa 64.2 mm 5.9°
1
91%
10:00
Voelt als: 7.2°
1016.9 hPa 64.2 mm 6.4°
1
91%
13:00
Voelt als: 8.1°
1017.1 hPa 64.2 mm 6.9°
1
91%
16:00
Voelt als: 6.4°
1017.1 hPa 64.2 mm 5.7°
1
71%
19:00
Voelt als: 4.4°
1017.2 hPa 128.4 mm 4.3°
1
51%
 08:10     16:46    Daglengte: 8:36 Donderdag 19 Dec
01:00
Voelt als: 4.0°
1016.8 hPa 128.4 mm 3.3°
1
32%
07:00
Voelt als: 3.5°
1014.7 hPa 128.4 mm 3.4°
2
59%
13:00
Voelt als: 8.1°
1012.4 hPa 128.4 mm 6.2°
1
84%
19:00
Voelt als: 5.1°
1011.7 hPa 128.4 mm 4.1°
2
82%
 08:11     16:46    Daglengte: 8:35 Vrijdag 20 Dec
01:00
Voelt als: 4.1°
1012.0 hPa 128.4 mm 2.6°
1
57%
07:00
Voelt als: 0.8°
1011.3 hPa 128.4 mm 0.1°
1
23%
13:00
Voelt als: 7.3°
1009.1 hPa 128.4 mm 3.4°
1
26%
19:00
Voelt als: 5.0°
1007.5 hPa 128.4 mm 2.4°
1
92%
 08:12     16:47    Daglengte: 8:35 Zaterdag 21 Dec
01:00
Voelt als: 3.1°
1025.1 hPa 128.4 mm 0.8°
1
0%
07:00
Voelt als: 4.6°
1025.1 hPa 128.4 mm 1.7°
1
1%
13:00
1025.3 hPa 128.4 mm 8.2°
1
1%
19:00
Voelt als: 5.8°
1018.4 hPa 2.1 mm 4.6°
1
68%
 08:12     16:47    Daglengte: 8:35 Zondag 22 Dec
01:00
Voelt als: 4.4°
1018.9 hPa 2.6 mm 3.0°
1
66%
07:00
1018.6 hPa 2.2 mm 2.3°
1
67%
13:00
Voelt als: 8.7°
1017.7 hPa 1.3 mm 7.0°
1
66%
19:00
Voelt als: 3.7°
1018.5 hPa 1.3 mm 2.4°
1
73%
 08:13     16:48    Daglengte: 8:35 Maandag 23 Dec
01:00
Voelt als: 3.2°
1018.8 hPa 1.4 mm 1.4°
1
70%
07:00
Voelt als: 2.3°
1018.3 hPa 1.3 mm 0.4°
1
67%
13:00
Voelt als: 7.8°
1016.9 hPa 1.2 mm 6.1°
0
64%
19:00
1018.0 hPa 1.1 mm 2.0°
0
66%
 08:13     16:48    Daglengte: 8:35 Dinsdag 24 Dec
01:00
Voelt als: 2.0°
1018.7 hPa 0.6 mm 0.7°
1
56%
07:00
1018.9 hPa 0.7 mm -0.2°
0
61%
13:00
1017.8 hPa 0.4 mm 4.9°
1
54%
19:00
Voelt als: 2.2°
1019.3 hPa 0.8 mm 1.1°
1
62%
 08:13     16:49    Daglengte: 8:36 Woensdag 25 Dec
01:00
Voelt als: 1.0°
1020.1 hPa 0.9 mm -0.4°
1
58%
07:00
Voelt als: 0.2°
1020.2 hPa 1.0 mm -1.4°
1
54%
13:00
Voelt als: 7.5°
1019.0 hPa 1.5 mm 5.8°
0
49%
19:00
1019.5 hPa 1.4 mm 0.7°
0
53%
 08:14     16:50    Daglengte: 8:36 Donderdag 26 Dec
01:00
Voelt als: 1.1°
1019.7 hPa 0.4 mm 0.3°
1
53%
07:00
Voelt als: 0.5°
1018.6 hPa 0.8 mm -0.2°
1
61%
13:00
Voelt als: 6.9°
1017.2 hPa 1.7 mm 5.2°
1
71%
19:00
1017.8 hPa 1.4 mm 1.2°
0
72%
  CAPE Lifted Index Hail Supercell Tornado SRH 3km CL BTM PRES CL TOP PRES Swiss DWD icon SMHI TS
 08:05     16:44    Daglengte: 8:39 Vandaag
20:00 0 J/kg 6.8 K 0 % 0 % 0 % 0 m²/s² 0 0 7.22 71
21:00 0 J/kg 6.9 K 0 % 0 % 0 % 0 m²/s² 0 0 7.38 71
22:00 0 J/kg 7.3 K 0 % 0 % 0 % 0 m²/s² 0 0 7.84 71
23:00 0 J/kg 7.4 K 0 % 0 % 0 % 0 m²/s² 0 0 8.15 71
 08:05     16:44    Daglengte: 8:39 Morgen
00:00 0 J/kg 7.7 K 0 % 0 % 0 % 0 m²/s² 0 0 9.62 71
01:00 0 J/kg 6.3 K 0 % 0 % 0 % 0 m²/s² 0 0 8.31 71
02:00 0 J/kg 4.3 K 0 % 0 % 0 % 0 m²/s² 0 0 4.93 3
03:00 0 J/kg 2.3 K 0 % 0 % 0 % 0 m²/s² 0 0 2.63 3
04:00 0 J/kg 2.8 K 0 % 0 % 0 % 0 m²/s² 0 0 4.09 3
05:00 0 J/kg 4.3 K 0 % 0 % 0 % 0 m²/s² 0 0 6.4 3
06:00 0 J/kg 2.5 K 0 % 0 % 0 % 0 m²/s² 0 0 3.37 3
07:00 0 J/kg 1.8 K 0 % 0 % 0 % 0 m²/s² 0 0 2.31 71
08:00 0 J/kg 2.1 K 0 % 0 % 0 % 0 m²/s² 0 0 2.55 71
09:00 0 J/kg 3.5 K 0 % 0 % 0 % 0 m²/s² 0 0 3.95 71
10:00 0 J/kg 5.3 K 0 % 0 % 0 % 0 m²/s² 0 0 5.78 2
11:00 0 J/kg 6.7 K 0 % 0 % 0 % 0 m²/s² 0 0 7.15 1
12:00 0 J/kg 7.8 K 0 % 0 % 0 % 0 m²/s² 0 0 8.34 1
13:00 0 J/kg 7.8 K 0 % 0 % 0 % 0 m²/s² 0 0 8.64 0
14:00 0 J/kg 7.5 K 0 % 0 % 0 % 0 m²/s² 0 0 10.05 0
15:00 0 J/kg 7.5 K 0 % 0 % 0 % 0 m²/s² 0 0 10.68 0
16:00 0 J/kg 6.6 K 0 % 0 % 0 % 0 m²/s² 0 0 9.63 0
17:00 0 J/kg 5.5 K 0 % 0 % 0 % 0 m²/s² 0 0 8.05 0
18:00 0 J/kg 4.4 K 0 % 0 % 0 % 0 m²/s² 0 0 6.23 0
19:00 0 J/kg 4.3 K 0 % 0 % 0 % 0 m²/s² 0 0 5.86 0
20:00 0 J/kg 4.2 K 0 % 0 % 0 % 0 m²/s² 0 0 5.43 0
21:00 0 J/kg 3.8 K 0 % 0 % 0 % 0 m²/s² 0 0 5 2
22:00 0 J/kg 2.8 K 0 % 0 % 0 % 0 m²/s² 0 0 3.37 1
23:00 0 J/kg 1.5 K 0 % 0 % 0 % 0 m²/s² 0 0 1.89 3
 08:06     16:44    Daglengte: 8:38 Vrijdag 13 Dec
00:00 0 J/kg 1.2 K 0 % 0 % 0 % 0 m²/s² 0 0 1.41 3
01:00 0 J/kg 0.7 K 0 % 0 % 0 % 0 m²/s² 0 0 1.03 3
02:00 0 J/kg -0.1 K 0 % 0 % 0 % 0 m²/s² 0 0 0.17 3
03:00 0 J/kg 0.7 K 0 % 0 % 0 % 0 m²/s² 0 0 1.03 3
04:00 0 J/kg 1.4 K 0 % 0 % 0 % 0 m²/s² 0 0 1.61 71
05:00 0 J/kg 1.2 K 0 % 0 % 0 % 0 m²/s² 0 0 1.47 73
06:00 0 J/kg 2.6 K 0 % 0 % 0 % 0 m²/s² 0 0 2.63 73
07:00 0 J/kg 1.9 K 0 % 0 % 0 % 0 m²/s² 0 0 2.17 71
08:00 33 J/kg 1.8 K 0 % 0 % 0 % 0 m²/s² 0 0 2.22 73
09:00 40 J/kg 3.0 K 0 % 0 % 0 % 0 m²/s² 0 0 3.48 73
10:00 6 J/kg 4.2 K 0 % 0 % 0 % 0 m²/s² 0 0 4.62 73
11:00 26 J/kg 2.5 K 0 % 0 % 0 % 0 m²/s² 0 0 3.7 86
12:00 1 J/kg 1.8 K 0 % 0 % 0 % 0 m²/s² 0 0 3.75 73
13:00 2 J/kg 1.0 K 0 % 0 % 0 % 0 m²/s² 0 0 1.63 85
14:00 21 J/kg 1.3 K 0 % 0 % 0 % 0 m²/s² 0 0 1.6 85
15:00 89 J/kg 0.0 K 0 % 0 % 0 % 0 m²/s² 0 0 0.54 85
16:00 0 J/kg -0.6 K 0 % 0 % 0 % 0 m²/s² 0 0 -0.33 45
17:00 0 J/kg 0.3 K 0 % 0 % 0 % 0 m²/s² 0 0 0.81 71
18:00 19 J/kg 1.5 K 0 % 0 % 0 % 0 m²/s² 0 0 2.43 71
19:00 2 J/kg 2.3 K 0 % 0 % 0 % 0 m²/s² 0 0 3.59 71
20:00 33 J/kg 1.4 K 0 % 0 % 0 % 0 m²/s² 0 0 1.79 3
21:00 0 J/kg 0.7 K 0 % 0 % 0 % 0 m²/s² 0 0 1.12 3
22:00 0 J/kg 1.2 K 0 % 0 % 0 % 0 m²/s² 0 0 1.5 3
23:00 0 J/kg 4.1 K 0 % 0 % 0 % 0 m²/s² 0 0 4.82 3
 08:07     16:44    Daglengte: 8:37 Zaterdag 14 Dec
00:00 1 J/kg 5.7 K 0 % 0 % 0 % 0 m²/s² 0 0 7.17 3
01:00 0 J/kg 6.0 K 0 % 0 % 0 % 0 m²/s² 0 0 7.59 71
02:00 0 J/kg 6.5 K 0 % 0 % 0 % 0 m²/s² 0 0 8.21 73
03:00 0 J/kg 6.8 K 0 % 0 % 0 % 0 m²/s² 0 0 7.61 71
04:00 0 J/kg 5.2 K 0 % 0 % 0 % 0 m²/s² 0 0 5.47 71
05:00 0 J/kg 3.5 K 0 % 0 % 0 % 0 m²/s² 0 0 3.98 61
06:00 0 J/kg 2.5 K 0 % 0 % 0 % 0 m²/s² 0 0 2.95 80
07:00 0 J/kg 2.3 K 0 % 0 % 0 % 0 m²/s² 0 0 2.72 80
08:00 0 J/kg 3.9 K 0 % 0 % 0 % 0 m²/s² 0 0 4.35 66
09:00 0 J/kg 5.5 K 0 % 0 % 0 % 0 m²/s² 0 0 6.73 3
10:00 0 J/kg 4.9 K 0 % 0 % 0 % 0 m²/s² 0 0 5.56 3
11:00 0 J/kg 4.6 K 0 % 0 % 0 % 0 m²/s² 0 0 5.17 3
12:00 0 J/kg 4.6 K 0 % 0 % 0 % 0 m²/s² 0 0 5.32 3
13:00 0 J/kg 4.1 K 0 % 0 % 0 % 0 m²/s² 0 0 4.46 3
14:00 0 J/kg 3.8 K 0 % 0 % 0 % 0 m²/s² 0 0 4.37 3
15:00 0 J/kg 4.0 K 0 % 0 % 0 % 0 m²/s² 0 0 4.72 3
16:00 0 J/kg 3.6 K 0 % 0 % 0 % 0 m²/s² 0 0 4.05 3
17:00 0 J/kg 2.8 K 0 % 0 % 0 % 0 m²/s² 0 0 3.16 3
18:00 0 J/kg 1.7 K 0 % 0 % 0 % 0 m²/s² 0 0 1.94 3
19:00 0 J/kg 0.5 K 0 % 0 % 0 % 0 m²/s² 0 0 0.74 3
Temp Baro Wind Neerslag
  EWN Forecast EWN WRFDA DWD ICON FMI HIRLAM MET Norway GFS
 08:05     16:44    Daglengte: 8:39 Vandaag
22:00 2.1° 1011.6 hPa 1.0 m/s 3.4 mm 3.0° 1011.1 hPa 3.4 m/s 13.9 mm -0.1° 1011.3 hPa 0.7 m/s 1.3 mm 4.5° 1011.8 hPa 1.1 m/s 0.0 mm 2.1° 1012.3 hPa 0.7 m/s 4.2° 1011.7 hPa 1.6 m/s
 08:05     16:44    Daglengte: 8:39 Morgen
01:00 1.3° 1010.2 hPa 1.0 m/s 3.5 mm 1.9° 1009.4 hPa 4.3 m/s 17.9 mm -0.6° 1009.7 hPa 1.1 m/s 0.5 mm 2.5° 1010.6 hPa 0.3 m/s 0.0 mm 1.4° 1011.0 hPa 0.8 m/s 3.5° 1009.9 hPa 1.1 m/s
04:00 0.1° 1009.7 hPa 0.7 m/s 4.1 mm 1.5° 1008.4 hPa 4.1 m/s 18.0 mm -1.2° 1009.3 hPa 0.3 m/s 0.0 mm 0.1° 1010.9 hPa 1.1 m/s 0.0 mm 0.5° 1010.2 hPa 0.2 m/s 1.3° 1008.8 hPa 1.0 m/s
07:00 -0.4° 1010.9 hPa 1.9 m/s 4.8 mm 0.5° 1008.5 hPa 5.3 m/s 18.2 mm -1.6° 1009.9 hPa 1.0 m/s 0.8 mm 2.7° 1011.0 hPa 3.4 m/s 0.0 mm -0.6° 1011.9 hPa 1.2 m/s 1.8° 1010.3 hPa 2.0 m/s
10:00 0.3° 1011.8 hPa 1.8 m/s 1.7 mm 0.8° 1009.3 hPa 2.7 m/s 22.8 mm -1.6° 1011.4 hPa 0.9 m/s 0.9 mm 2.3° 1011.9 hPa 2.8 m/s 0.0 mm 0.7° 1012.0 hPa 0.9 m/s 1.5° 1010.4 hPa 1.2 m/s
13:00 1.2° 1009.5 hPa 1.5 m/s 0.0 mm 1.5° 1008.4 hPa 2.6 m/s 27.8 mm 0.0° 1009.4 hPa 1.6 m/s 0.0 mm 3.6° 1009.5 hPa 2.8 m/s 0.0 mm 1.1° 1010.0 hPa 1.1 m/s 3.3° 1009.1 hPa 1.6 m/s
16:00 0.7° 1006.6 hPa 1.2 m/s 0.0 mm -1.5° 1004.2 hPa 4.7 m/s 27.9 mm -1.1° 1008.1 hPa 0.7 m/s 0.0 mm 4.0° 1008.1 hPa 1.8 m/s 0.0 mm 1.1° 1006.5 hPa 0.7 m/s 0.8° 1007.1 hPa 1.0 m/s
19:00 -1.0° 1003.1 hPa 1.5 m/s 0.0 mm -0.4° 1000.4 hPa 5.3 m/s 27.9 mm -2.6° 1006.2 hPa 1.2 m/s 0.0 mm 1.6° 1007.3 hPa 0.7 m/s 0.0 mm -1.0° 1001.8 hPa 0.9 m/s -1.6° 1005.6 hPa 2.1 m/s
22:00 -0.2° 998.6 hPa 1.7 m/s 0.0 mm 5.7° 994.9 hPa 4.9 m/s 27.9 mm -3.0° 1002.6 hPa 1.3 m/s 0.0 mm 2.0° 1002.0 hPa 0.2 m/s 0.0 mm -0.3° 997.2 hPa 1.1 m/s -0.9° 1001.7 hPa 2.2 m/s
 08:06     16:44    Daglengte: 8:38 Vrijdag 13 Dec
01:00 0.5° 996.1 hPa 1.6 m/s 0.0 mm 6.4° 991.6 hPa 8.2 m/s 28.1 mm -2.5° 998.9 hPa 0.7 m/s 0.0 mm 4.1° 996.5 hPa 0.4 m/s 0.0 mm 0.0° 996.2 hPa 0.9 m/s 1.2° 998.7 hPa 2.0 m/s
04:00 1.0° 991.7 hPa 2.0 m/s 6.4 mm 6.6° 986.8 hPa 5.5 m/s 28.5 mm -4.3° 998.7 hPa 2.7 m/s 1.6 mm 4.4° 990.1 hPa 0.4 m/s 0.0 mm 0.5° 991.2 hPa 0.8 m/s 1.3° 994.4 hPa 2.0 m/s
07:00 1.2° 988.5 hPa 1.4 m/s 7.6 mm 5.9° 984.0 hPa 5.4 m/s 32.2 mm -3.5° 993.7 hPa 2.1 m/s 5.1 mm 6.0° 987.3 hPa 0.2 m/s 0.0 mm 0.5° 988.3 hPa 0.9 m/s 1.5° 992.4 hPa 3.2 m/s
10:00 1.4° 988.8 hPa 2.8 m/s 13.2 mm 3.8° 988.2 hPa 8.3 m/s 44.0 mm -3.7° 995.0 hPa 3.6 m/s 8.7 mm 6.3° 986.5 hPa 3.6 m/s 0.0 mm 0.6° 988.8 hPa 0.8 m/s 1.7° 992.8 hPa 1.5 m/s
13:00 1.6° 989.2 hPa 3.7 m/s 11.4 mm 2.1° 987.0 hPa 8.8 m/s 53.8 mm -1.6° 993.4 hPa 2.3 m/s 3.1 mm 4.6° 987.5 hPa 5.7 m/s 0.0 mm 1.0° 989.8 hPa 1.3 m/s 3.4° 993.1 hPa 3.0 m/s
16:00 1.5° 992.5 hPa 2.6 m/s 11.4 mm 1.9° 989.1 hPa 6.0 m/s 64.3 mm -1.7° 994.2 hPa 1.8 m/s 1.7 mm 1.8° 992.7 hPa 1.7 m/s 2.2° 994.7 hPa 2.9 m/s
19:00 1.5° 995.5 hPa 3.4 m/s 13.3 mm 3.1° 992.8 hPa 11.3 m/s 80.2 mm -2.3° 997.5 hPa 1.9 m/s 2.0 mm 1.7° 995.7 hPa 1.5 m/s 1.6° 998.7 hPa 2.8 m/s
22:00 2.2° 998.2 hPa 3.6 m/s 13.9 mm 4.8° 993.3 hPa 13.0 m/s 100.5 mm -2.1° 1000.5 hPa 2.1 m/s 0.3 mm 2.2° 998.9 hPa 1.8 m/s 1.2° 1002.6 hPa 2.1 m/s
 08:07     16:44    Daglengte: 8:37 Zaterdag 14 Dec
01:00 2.5° 998.5 hPa 3.2 m/s 18.1 mm 5.0° 997.2 hPa 13.0 m/s 126.9 mm -1.6° 999.1 hPa 2.5 m/s 0.1 mm 2.7° 1000.9 hPa 1.6 m/s -0.8° 1005.7 hPa 1.4 m/s
04:00 3.6° 998.8 hPa 3.1 m/s 22.7 mm 3.1° 999.8 hPa 6.7 m/s 141.6 mm 0.7° 998.3 hPa 2.3 m/s 2.9 mm 3.3° 1000.2 hPa 1.3 m/s 0.1° 1006.3 hPa 0.9 m/s
07:00 4.5° 999.4 hPa 3.2 m/s 24.8 mm 5.8° 999.3 hPa 6.7 m/s 154.7 mm 1.9° 1000.1 hPa 2.4 m/s 2.4 mm 4.2° 1000.0 hPa 1.7 m/s 2.8° 1007.2 hPa 0.7 m/s
10:00 5.2° 1004.0 hPa 3.5 m/s 49.8 mm 7.2° 1004.0 hPa 7.7 m/s 166.6 mm 2.8° 1004.1 hPa 2.7 m/s 0.8 mm 5.2° 1004.4 hPa 1.9 m/s 6.1° 1008.3 hPa 1.3 m/s
13:00 5.9° 1006.2 hPa 2.6 m/s 57.8 mm 8.0° 1004.9 hPa 7.3 m/s 170.5 mm 2.9° 1005.8 hPa 2.0 m/s 0.1 mm 6.3° 1008.8 hPa 2.0 m/s 7.5° 1008.2 hPa 1.7 m/s
16:00 5.7° 1008.9 hPa 2.2 m/s 0.0 mm 8.5° 1006.8 hPa 7.8 m/s 172.9 mm 3.7° 1006.8 hPa 1.7 m/s 0.0 mm 5.8° 1010.9 hPa 1.6 m/s 7.9° 1009.2 hPa 1.7 m/s
19:00 5.3° 1010.7 hPa 1.4 m/s 0.0 mm 8.5° 1007.2 hPa 5.0 m/s 173.5 mm 3.0° 1008.8 hPa 0.3 m/s 0.0 mm 5.3° 1013.0 hPa 1.1 m/s 8.0° 1010.7 hPa 1.7 m/s
22:00 6.0° 1013.7 hPa 0.9 m/s 63.1 mm 5.8° 1013.9 hPa 0.9 m/s 7.9° 1012.1 hPa 1.5 m/s 63.1 mm
 08:08     16:44    Daglengte: 8:36 Zondag 15 Dec
01:00 6.0° 1014.1 hPa 0.9 m/s 63.1 mm 6.1° 1014.3 hPa 0.8 m/s 5.5° 1012.4 hPa 1.4 m/s 63.1 mm
04:00 6.1° 1013.6 hPa 0.6 m/s 63.1 mm 6.3° 1013.6 hPa 0.6 m/s 4.0° 1012.7 hPa 1.0 m/s 63.1 mm
07:00 6.3° 1013.1 hPa 0.5 m/s 63.1 mm 6.5° 1013.0 hPa 0.4 m/s 3.8° 1013.9 hPa 1.1 m/s 63.1 mm
10:00 7.9° 1012.6 hPa 0.6 m/s 63.1 mm 8.1° 1012.3 hPa 0.6 m/s 6.7° 1015.5 hPa 0.7 m/s 63.1 mm
13:00 9.5° 1011.9 hPa 0.8 m/s 63.1 mm 9.6° 1011.6 hPa 0.8 m/s 8.3° 1014.9 hPa 0.6 m/s 63.1 mm
16:00 7.5° 1012.3 hPa 1.0 m/s 63.1 mm 7.4° 1012.0 hPa 1.1 m/s 8.0° 1015.6 hPa 0.6 m/s 63.1 mm
19:00 5.5° 1012.7 hPa 1.3 m/s 63.1 mm 5.3° 1012.3 hPa 1.3 m/s 7.5° 1017.4 hPa 1.2 m/s 63.1 mm
22:00 4.6° 1013.8 hPa 1.4 m/s 63.1 mm 4.5° 1013.4 hPa 1.4 m/s 5.7° 1018.5 hPa 1.5 m/s 63.1 mm
 08:09     16:45    Daglengte: 8:36 Maandag 16 Dec
01:00 3.7° 1014.8 hPa 1.6 m/s 63.1 mm 3.6° 1014.5 hPa 1.5 m/s 4.4° 1018.5 hPa 2.6 m/s 63.1 mm
04:00 3.0° 1015.2 hPa 1.8 m/s 63.1 mm 2.9° 1015.0 hPa 1.7 m/s 4.2° 1017.9 hPa 2.8 m/s 63.1 mm
07:00 2.4° 1015.7 hPa 2.1 m/s 63.2 mm 2.2° 1015.5 hPa 1.9 m/s 4.9° 1017.8 hPa 4.1 m/s 63.2 mm
10:00 4.2° 1015.1 hPa 1.8 m/s 63.2 mm 4.0° 1014.9 hPa 1.7 m/s 6.5° 1018.1 hPa 3.2 m/s 63.2 mm
13:00 5.9° 1014.4 hPa 1.7 m/s 63.3 mm 5.7° 1014.2 hPa 1.5 m/s 8.3° 1016.3 hPa 3.8 m/s 63.3 mm
16:00 5.4° 1013.8 hPa 1.7 m/s 63.3 mm 5.2° 1013.7 hPa 1.6 m/s 7.6° 1015.8 hPa 3.7 m/s 63.3 mm
19:00 4.8° 1013.3 hPa 1.8 m/s 63.3 mm 4.7° 1013.1 hPa 1.6 m/s 6.3° 1015.9 hPa 3.9 m/s 63.3 mm
22:00 5.5° 1013.0 hPa 1.8 m/s 63.3 mm 5.3° 1012.8 hPa 1.6 m/s 7.1° 1015.9 hPa 3.7 m/s 63.3 mm
 08:09     16:45    Daglengte: 8:36 Dinsdag 17 Dec
01:00 6.1° 1012.6 hPa 1.9 m/s 63.3 mm 5.9° 1012.4 hPa 1.7 m/s 7.9° 1015.1 hPa 3.7 m/s 63.3 mm
04:00 6.5° 1011.6 hPa 1.8 m/s 63.3 mm 6.3° 1011.3 hPa 1.7 m/s 8.1° 1014.5 hPa 3.4 m/s 63.3 mm
07:00 6.9° 1010.6 hPa 1.8 m/s 63.4 mm 6.8° 1010.3 hPa 1.7 m/s 8.1° 1014.3 hPa 3.3 m/s 63.3 mm
10:00 7.7° 1011.1 hPa 1.7 m/s 63.4 mm 7.6° 1010.6 hPa 1.5 m/s 8.7° 1015.7 hPa 2.9 m/s 63.4 mm
13:00 8.4° 1011.4 hPa 1.5 m/s 63.4 mm 8.4° 1011.0 hPa 1.4 m/s 9.0° 1015.5 hPa 2.3 m/s 63.4 mm
16:00 7.6° 1012.0 hPa 1.5 m/s 63.4 mm 7.5° 1011.6 hPa 1.4 m/s 8.6° 1015.9 hPa 2.5 m/s 63.4 mm
19:00 6.7° 1012.7 hPa 1.4 m/s 63.4 mm 6.6° 1012.2 hPa 1.4 m/s 7.4° 1018.0 hPa 1.4 m/s 63.4 mm
22:00 6.7° 1013.6 hPa 1.3 m/s 63.4 mm 6.8° 1012.9 hPa 1.4 m/s 6.3° 1021.1 hPa 0.2 m/s 63.4 mm
 08:10     16:45    Daglengte: 8:35 Woensdag 18 Dec
01:00 6.8° 1014.4 hPa 1.4 m/s 63.9 mm 6.9° 1013.6 hPa 1.4 m/s 6.0° 1022.9 hPa 0.9 m/s 63.9 mm
04:00 6.8° 1015.4 hPa 1.2 m/s 64.1 mm 6.8° 1014.7 hPa 1.3 m/s 6.4° 1023.8 hPa 0.7 m/s 64.1 mm
07:00 6.7° 1016.4 hPa 1.2 m/s 64.2 mm 6.8° 1015.7 hPa 1.2 m/s 5.9° 1024.5 hPa 1.0 m/s 64.2 mm
10:00 7.5° 1016.9 hPa 1.2 m/s 64.2 mm 7.6° 1016.0 hPa 1.2 m/s 7.3° 1025.8 hPa 0.9 m/s 64.2 mm
13:00 8.3° 1017.1 hPa 1.2 m/s 64.2 mm 8.3° 1016.4 hPa 1.2 m/s 8.4° 1025.3 hPa 0.9 m/s 64.2 mm
16:00 6.9° 1017.1 hPa 1.3 m/s 64.2 mm 6.9° 1016.3 hPa 1.3 m/s 7.2° 1025.6 hPa 1.0 m/s 64.2 mm
19:00 5.4° 1017.2 hPa 1.4 m/s 64.2 mm 5.4° 1016.3 hPa 1.4 m/s 5.1° 1027.2 hPa 1.9 m/s 64.2 mm
 08:10     16:46    Daglengte: 8:36 Donderdag 19 Dec
01:00 5.0° 1016.8 hPa 1.5 m/s 64.2 mm 5.1° 1015.7 hPa 1.4 m/s 4.3° 1029.2 hPa 2.3 m/s 64.2 mm
07:00 4.9° 1014.7 hPa 1.8 m/s 64.2 mm 5.0° 1013.4 hPa 1.7 m/s 3.9° 1029.0 hPa 2.6 m/s 64.2 mm
13:00 8.3° 1012.4 hPa 1.2 m/s 64.2 mm 8.2° 1010.9 hPa 1.1 m/s 8.9° 1028.5 hPa 2.1 m/s 64.2 mm
19:00 6.3° 1011.7 hPa 1.8 m/s 64.2 mm 6.3° 1010.1 hPa 1.7 m/s 5.8° 1029.0 hPa 2.5 m/s 64.2 mm
 08:11     16:46    Daglengte: 8:35 Vrijdag 20 Dec
01:00 5.0° 1012.0 hPa 1.4 m/s 64.2 mm 4.9° 1010.6 hPa 1.3 m/s 5.7° 1027.5 hPa 2.4 m/s 64.2 mm
07:00 2.2° 1011.3 hPa 1.5 m/s 64.2 mm 1.9° 1010.0 hPa 1.4 m/s 5.9° 1025.5 hPa 2.6 m/s 64.2 mm
13:00 7.5° 1009.1 hPa 1.1 m/s 64.2 mm 7.3° 1007.8 hPa 1.1 m/s 9.7° 1023.6 hPa 1.1 m/s 64.2 mm
19:00 5.5° 1007.5 hPa 1.2 m/s 64.2 mm 5.6° 1006.0 hPa 1.2 m/s 4.9° 1024.1 hPa 0.8 m/s 64.2 mm
 08:12     16:47    Daglengte: 8:35 Zaterdag 21 Dec
01:00 3.9° 1025.1 hPa 1.3 m/s 64.2 mm 3.9° 1025.1 hPa 1.3 m/s 64.2 mm
07:00 4.7° 1025.1 hPa 0.9 m/s 64.2 mm 4.7° 1025.1 hPa 0.9 m/s 64.2 mm
13:00 8.4° 1025.3 hPa 0.5 m/s 64.2 mm 8.4° 1025.3 hPa 0.5 m/s 64.2 mm
19:00 6.1° 1018.4 hPa 1.1 m/s 2.1 mm
 08:12     16:47    Daglengte: 8:35 Zondag 22 Dec
01:00 4.7° 1018.9 hPa 1.0 m/s 2.6 mm
07:00 4.2° 1018.6 hPa 0.6 m/s 2.2 mm
13:00 8.7° 1017.7 hPa 0.8 m/s 1.3 mm
19:00 3.7° 1018.5 hPa 0.5 m/s 1.3 mm
 08:13     16:48    Daglengte: 8:35 Maandag 23 Dec
01:00 3.2° 1018.8 hPa 0.8 m/s 1.4 mm
07:00 2.3° 1018.3 hPa 0.5 m/s 1.3 mm
13:00 7.8° 1016.9 hPa 0.4 m/s 1.2 mm
19:00 3.4° 1018.0 hPa 0.2 m/s 1.1 mm
 08:13     16:48    Daglengte: 8:35 Dinsdag 24 Dec
01:00 2.0° 1018.7 hPa 0.6 m/s 0.6 mm
07:00 1.3° 1018.9 hPa 0.4 m/s 0.7 mm
13:00 6.8° 1017.8 hPa 0.6 m/s 0.4 mm
19:00 2.3° 1019.3 hPa 0.8 m/s 0.8 mm
 08:13     16:49    Daglengte: 8:36 Woensdag 25 Dec
01:00 1.2° 1020.1 hPa 0.8 m/s 0.9 mm
07:00 0.2° 1020.2 hPa 0.5 m/s 1.0 mm
13:00 7.5° 1019.0 hPa 0.4 m/s 1.5 mm
19:00 1.8° 1019.5 hPa 0.4 m/s 1.4 mm
 08:14     16:50    Daglengte: 8:36 Donderdag 26 Dec
01:00 1.8° 1019.7 hPa 1.0 m/s 0.4 mm
07:00 1.3° 1018.6 hPa 1.1 m/s 0.8 mm
13:00 6.9° 1017.2 hPa 0.6 m/s 1.7 mm
19:00 2.4° 1017.8 hPa 0.4 m/s 1.4 mm
FMI Hirlam - 7.5 km EWN WRFDA - 12 km DWD ICON - 7 km GFS - 25 km Basiskaart






























































Updatetijd (Europe/Amsterdam) Resolutie Lengte Stap
FMI Hirlam 18:00, 00:00, 06:00, 12:00 7.5 km 49h 1h
EWN WRFDA 14:30, 20:30, 02:30, 08:30 12 km 73h 1h
DWD ICON 10:45, 16:45, 22:45, 04:45 7 km 75h 1h
GFS 13:30, 19:30, 01:30, 07:30 25 km 237h 3h
30+ mm
25-30 mm
20-25 mm
15-20 mm
10-15 mm
6-10 mm
4-6 mm
2-4 mm
1-2 mm
0.5-1 mm
0.2-0.5 mm
0.1-0.2 mm
30+ mm
25-30 mm
20-25 mm
15-20 mm
10-15 mm
6-10 mm
4-6 mm
2-4 mm
1-2 mm
0.5-1 mm
0.2-0.5 mm
0.1-0.2 mm
Sneeuwval
Natte sneeuw
Hagel
Vorst
30+ mm
25-30 mm
20-25 mm
15-20 mm
10-15 mm
6-10 mm
4-6 mm
2-4 mm
1-2 mm
0.5-1 mm
0.2-0.5 mm
0.1-0.2 mm
Sneeuwval
Natte sneeuw
Hagel
Vorst
Onweer
50 mm
40 mm
30 mm
26 mm
22 mm
18 mm
14 mm
10 mm
9 mm
8 mm
7 mm
6 mm
5 mm
4.5 mm
4 mm
3.5 mm
3 mm
2.5 mm
2 mm
1.5 mm
1 mm
0.8 mm
0.6 mm
0.4 mm
0.2 mm
0.05 mm
35°
30°
25°
20°
15°
10°
-5°
-10°
-15°
-20°
-25°
-30°
-35°
120> km/h
105 km/h
90 km/h
75 km/h
60 km/h
50 km/h
40 km/h
30 km/h
20 km/h
10 km/h
0 km/h
2600 J/kg
2400 J/kg
2200 J/kg
2000 J/kg
1800 J/kg
1600 J/kg
1400 J/kg
1200 J/kg
1000 J/kg
800 J/kg
600 J/kg
400 J/kg
200 J/kg
70 dBZ
65 dBZ
60 dBZ
55 dBZ
50 dBZ
45 dBZ
40 dBZ
35 dBZ
30 dBZ
25 dBZ
20 dBZ
15 dBZ
10 dBZ
5 dBZ
-1 K
-2 K
-3 K
-4 K
-5 K
-6 K
-7 K
-8 K
-9 K
950 m²/s²
900 m²/s²
850 m²/s²
800 m²/s²
750 m²/s²
700 m²/s²
650 m²/s²
600 m²/s²
550 m²/s²
500 m²/s²
450 m²/s²
400 m²/s²
350 m²/s²
300 m²/s²
250 m²/s²
200 m²/s²
150 m²/s²
100 m²/s²
46 m/s
44 m/s
42 m/s
40 m/s
38 m/s
36 m/s
34 m/s
32 m/s
30 m/s
28 m/s
26 m/s
24 m/s
22 m/s
20 m/s
16 m/s
12 m/s
8 m/s
4 m/s
30 m/s
28 m/s
26 m/s
24 m/s
22 m/s
20 m/s
18 m/s
16 m/s
14 m/s
12 m/s
10 m/s
8 m/s
6 m/s
4 m/s
2 m/s
3.0
2.8
2.6
2.4
2.2
2.0
1.8
1.6
1.4
1.2
1.0
0.8
0.6
0.4
0.2
15
14
13
12
11
10
9
8
7
6
5
4
3
2
1
90%
80%
70%
60%
50%
40%
30%
20%
10%
42
40
38
36
34
32
30
28
26
24
22
20
18
16
14
12
90+ cm
80-90 cm
70-80 cm
60-70 cm
50-60 cm
40-50 cm
30-40 cm
20-30 cm
10-20 cm
1-10 cm
Sneeuwval
Natte sneeuw
Regen
>120 mm
115 mm
110 mm
105 mm
100 mm
95 mm
90 mm
85 mm
80 mm
75 mm
70 mm
65 mm
60 mm
55 mm
50 mm
45 mm
45 mm
40 mm
35 mm
30 mm
25 mm
20 mm
15 mm
10 mm
5 mm
0.1 mm
960 hPa
880 hPa
800 hPa
720 hPa
640 hPa
560 hPa
584 gpdm
568 gpdm
552 gpdm
536 gpdm
520 gpdm
504 gpdm
488 gpdm
Extreem zwaar Noodweer Kans op onweer
15% 15% 5% 50% 15%

Dag




Kaart






35°
30°
25°
20°
15°
10°
-5°
-10°
-15°
-20°
-25°
-30°
-35°
120> km/h
105 km/h
90 km/h
75 km/h
60 km/h
50 km/h
40 km/h
30 km/h
20 km/h
10 km/h
0 km/h
Extreem zwaar Noodweer Kans op onweer
15% 15% 5% 50% 15%
>120 mm
115 mm
110 mm
105 mm
100 mm
95 mm
90 mm